カタログに戻る

SCOUT G-1 DEB

運用中PO
NORAD 21691·DEBRIS·🇺🇸 United States

打ち上げ Jun 29, 1991 から Vandenberg Space Force Base

Loading…

次のパス (今後24時間)

TLE

最新Source: Space-Track

元期: Sep 14, 2026, 10:47 UTC

1 21691U 91045E   26257.44988723  .00000947  00000-0  21300-3 0  9994
2 21691  89.8047 252.3504 0013374 184.8332 327.5977 14.55800368853696

AllMySatでSCOUT G-1 DEBをリアルタイム追跡

Download on the App Store